Hauptseite
METAR-TAF:

METAR-TAF

Flughäfen :

Flughafen Epinal-Mirecourt

Épinal, Frankreich

Breite: 48-19-31N, Länge: 6-04-00E, Höhe: 330 m

Beobachtung

Neuester Wetterbericht von vor 36 Minuten, um 20:30 UTC
Wind 8 kt aus Süd/Südwest
Temperatur 10°C
Luftfeuchtigkeit 87%
Luftdruck 1002 hPa
Sichtweite 10 km oder mehr

METAR: LFSG 272030Z AUTO 21008KT 9999 FEW031/// SCT039/// BKN047/// ///CB 10/08 Q1002

Zeit: 23:06 (21:06 UTC)


TAF: fehlend

Wetterbeobachtungen und Prognosen von mehr als 4000 Flughäfen (METAR und TAF Bericht).

Die verfügbaren Stationen werden durch gelbe und rote Markierungen auf der Karte dargestellt.

Führen Sie die Maus auf sie, um den Namen der Station zu sehen.

Darauf klicken, um die Beobachtung von Wetterbeobachtungen und Prognosen zu sehen.

Um die Karte zu ändern : klicken Sie auf den grünen Tasten mit einem schwarzen Kreuz Zum Vergrößern, auf den grünen Button mit einem Gedankenstrich zu verkleinern, oder auf die grünen Pfeile für benachbarte Karten.


METAR-TAF: